SM7GXQ Weather Reports


Display with metric or nautical units.
time (UTC)temp
F
wind
direction
speed
MPH
gust
MPH
rain 1hr
in
rain 24hr
in
rain mn
in
humidity
%
barometer
mb
20260901093006 65 263 1.0 7.0 0.00 0.01 0.01 81 1008.0
20260901083005 64 251 3.0 8.0 0.00 0.01 0.01 83 1007.4
20260901081504 64 239 3.0 7.0 0.00 0.01 0.01 84 1007.4
20260901080005 64 254 3.0 7.0 0.00 0.01 0.01 86 1007.4
20260901071504 63 256 2.0 5.0 0.00 0.01 0.01 89 1006.7
20260901070005 62 283 2.0 3.0 0.00 0.01 0.01 90 1006.7
20260901061504 61 285 1.0 3.0 0.00 0.01 0.01 91 1006.6
20260901054504 61 276 2.0 3.0 0.00 0.01 0.01 91 1006.6
20260901051504 61 250 1.0 3.0 0.00 0.01 0.01 92 1006.5
20260901041505 61 201 1.0 5.0 0.00 0.01 0.01 92 1006.5
20260901040004 61 210 2.0 6.0 0.00 0.01 0.01 92 1006.6
20260901033005 61 241 3.0 8.0 0.00 0.01 0.01 91 1006.6
20260901031503 61 226 2.0 6.0 0.00 0.01 0.01 91 1006.4
20260901024504 62 218 2.0 6.0 0.00 0.01 0.01 91 1006.3
20260901014504 62 207 2.0 7.0 0.01 0.01 0.01 91 1006.3
20260901011503 62 204 2.0 3.0 0.00 0.00 0.00 91 1006.3
20260901001503 63 192 1.0 6.0 0.00 0.00 0.00 91 1006.1
20260901000004 63 229 2.0 5.0 0.00 0.00 0.00 91 1006.1
20260831233003 63 224 2.0 7.0 0.00 0.00 0.00 92 1006.1
20260831231503 63 214 2.0 7.0 0.00 0.00 0.00 94 1006.4
20260831214504 62 162 2.0 7.0 0.00 0.00 0.00 93 1006.4
20260831211503 63 162 3.0 8.0 0.00 0.00 0.00 93 1006.3
20260831210005 63 162 3.0 7.0 0.00 0.00 0.00 93 1006.5
20260831201504 63 176 2.0 7.0 0.00 0.00 0.00 92 1006.5
20260831193004 63 151 3.0 8.0 0.00 0.00 0.00 93 1006.5
20260831191504 63 143 1.0 6.0 0.00 0.00 0.00 93 1006.4
20260831190004 63 173 2.0 7.0 0.00 0.00 0.00 93 1006.4
20260831181503 63 172 1.0 5.0 0.00 0.00 0.00 92 1006.4
20260831180004 64 180 1.0 3.0 0.00 0.00 0.00 91 1006.4
20260831174504 64 180 1.0 5.0 0.00 0.00 0.00 91 1006.4
20260831173005 65 189 2.0 9.0 0.00 0.00 0.00 90 1006.4
20260831171504 65 219 3.0 8.0 0.00 0.00 0.00 89 1006.4
20260831164504 66 162 2.0 8.0 0.00 0.00 0.00 86 1006.5
20260831160004 66 180 3.0 10.0 0.00 0.01 0.00 85 1006.7
20260831141504 67 219 3.0 8.0 0.00 0.07 0.00 81 1007.4
20260831140005 67 188 2.0 12.0 0.00 0.07 0.00 81 1007.6
20260831134505 66 181 3.0 12.0 0.00 0.07 0.00 79 1007.4
20260831133005 66 175 2.0 9.0 0.00 0.09 0.00 79 1007.4
20260831131504 66 197 3.0 9.0 0.00 0.09 0.00 79 1007.6
20260831121504 68 207 3.0 9.0 0.00 0.09 0.00 76 1007.4
20260831111504 68 205 2.0 8.0 0.00 0.09 0.00 77 1007.3
20260831104504 68 214 3.0 12.0 0.00 0.09 0.00 78 1007.6
20260831103004 69 213 5.0 12.0 0.00 0.09 0.00 77 1008.0
20260831101505 67 200 3.0 10.0 0.00 0.10 0.00 80 1008.0
20260831100004 67 208 3.0 9.0 0.00 0.10 0.00 80 1008.0